Home   Weather   Puerto Plata   Past weeks
Flag for Dominican Republic

Past Weather in Puerto Plata, Dominican Republic — Yesterday and Last 2 Weeks

Now
82 °F

Passing clouds.


Feels Like: 91 °F
Forecast: 87 / 79 °F
Wind: No wind

Location: Puerto Plata International

Current Time: Jun 17, 2019 at 8:58:48 pm

Latest Report: Jun 17, 2019 at 8:00 pm


Visibility: N/A

Pressure: 30.04 "Hg

Humidity: 84%

Dew Point: 77 °F

Location of Puerto PlataLocation

Past Weather in Puerto Plata — Graph

°F

Puerto Plata Temperature Yesterday

Maximum temperature yesterday: 90 °F (at 2:00 pm)
Minimum temperature yesterday: 73 °F (at 10:00 am)
Average temperature yesterday: 83 °F

High & Low Weather Summary for the Past Weeks

 TemperatureHumidityPressure
High93 °F (Jun 10, 12:00 pm)100% (Jun 4, 6:00 pm)30.09 "Hg (Jun 4, 6:00 pm)
Low72 °F (Jun 9, 5:00 am)49% (Jun 11, 1:00 pm)29.89 "Hg (Jun 5, 5:00 pm)
Average83 °F77%29.99 "Hg
* Reported Jun 2 7:00 pm — Jun 17 7:00 pm, Puerto Plata. Weather by CustomWeather, © 2019

Note: Actual official high and low records may vary slightly from our data, if they occured in-between our weather recording intervals... More about our weather records

Advertising

Puerto Plata Weather History for the Previous 24 Hours

Scroll right to see more
 ConditionsComfort  
Time TempWeatherWind HumidityBarometerVisibility
7:00 pm
Mon, Jun 17
84 °FPassing clouds.21 mph79%30.04 "HgN/A
6:00 pm86 °FPassing clouds.17 mph75%30.01 "HgN/A
5:00 pm88 °FPassing clouds.25 mph70%30.01 "HgN/A
4:00 pm90 °FPassing clouds.23 mph67%30.01 "HgN/A
3:00 pm91 °FPassing clouds.23 mph63%30.01 "HgN/A
2:00 pm90 °FPassing clouds.23 mph63%30.01 "HgN/A
1:00 pm90 °FScattered clouds.23 mph63%30.04 "HgN/A
12:00 pm90 °FScattered clouds.23 mph63%30.04 "HgN/A
11:00 am88 °FScattered clouds.17 mph70%30.07 "HgN/A
10:00 am88 °FScattered clouds.12 mph66%30.07 "HgN/A
9:00 am86 °FScattered clouds.14 mph70%30.07 "HgN/A
8:00 am81 °FPassing clouds.No wind79%30.04 "HgN/A
7:00 am77 °FPassing clouds.No wind83%30.04 "HgN/A
5:00 am77 °FPassing clouds.No wind89%30.01 "HgN/A
11:00 pm
Sun, Jun 16
81 °FPassing clouds.No wind84%30.04 "HgN/A
10:00 pm81 °FPassing clouds.12 mph84%30.04 "HgN/A
9:00 pm81 °FPassing clouds.12 mph84%30.01 "HgN/A
8:00 pm82 °FPassing clouds.12 mph79%30.01 "HgN/A
Weather by CustomWeather, © 2019

See weather overview